Clovis, NM

11:09 PM MDT on July 21, 2017 (GMT -0600)
Clovis Municipal

Weather History for KCVN - October, 2013

Change the Weather History Date:

Friday, October 25, 2013

  Actual Average Record
Temperature  
Mean Temperature 48 °F -  
Max Temperature 60 °F 68 °F 88 °F (1941)
Min Temperature 35 °F 40 °F 26 °F (1918)
Degree Days  
Heating Degree Days 18    
Moisture  
Dew Point 39 °F    
Average Humidity 71    
Maximum Humidity 87    
Minimum Humidity 48    
Precipitation  
Precipitation 0.03 in - - ()
Sea Level Pressure  
Sea Level Pressure 30.30 in    
Wind  
Wind Speed 10 mph (SSE)    
Max Wind Speed 21 mph    
Max Gust Speed 31 mph    
Visibility 10 miles    
Events      
Averages and records for this station are not official NWS values.
T = Trace of Precipitation, MM = Missing Value Source: NWS Daily Summary

Daily Weather History Graph

Daily Weather History Graph

Search for Another Location

Airport or City:

Trip Planner

Search our weather history database for the weather conditions in past years. The results will help you decide how hot, cold, wet, or windy it might be!

Date:

Astronomy

Oct. 25, 2013 Rise Set
Actual Time 7:06 AM MDT 6:05 PM MDT
Civil Twilight 6:40 AM MDT 6:31 PM MDT
Nautical Twilight 6:11 AM MDT 7:00 PM MDT
Astronomical Twilight 5:42 AM MDT 7:30 PM MDT
Moon 11:30 PM MDT (10/25) 12:44 PM MDT (10/25)
Length of Visible Light 11h 50m
Length of Day
10h 59m
Waning Gibbous, 62% of the Moon is Illuminated
Oct 25
Waning Gibbous
Oct 26
Last Quarter
Nov 3
New
Nov 9
First Quarter
Nov 17
Full

Hourly Weather History & Observations

Time (MDT) Temp. Windchill Dew Point Humidity Pressure Visibility Wind Dir Wind Speed Gust Speed Precip Events Conditions
12:15 AM 46.4 °F 41.1 °F 35.6 °F 66% 30.32 in 10.0 mi ESE 11.5 mph - N/A   Clear
12:35 AM 44.6 °F 38.8 °F 35.6 °F 71% 30.32 in 10.0 mi ESE 11.5 mph - N/A   Clear
12:55 AM 44.6 °F 39.2 °F 35.6 °F 71% 30.32 in 10.0 mi ESE 10.4 mph - N/A   Clear
1:15 AM 44.6 °F 39.2 °F 35.6 °F 71% 30.32 in 10.0 mi ESE 10.4 mph - N/A   Clear
1:35 AM 42.8 °F 38.0 °F 33.8 °F 70% 30.33 in 10.0 mi ESE 8.1 mph - N/A   Clear
1:55 AM 42.8 °F 39.3 °F 33.8 °F 70% 30.33 in 10.0 mi East 5.8 mph - N/A   Clear
2:15 AM 41.0 °F 35.8 °F 33.8 °F 76% 30.33 in 10.0 mi ESE 8.1 mph - N/A   Clear
2:35 AM 41.0 °F 36.4 °F 33.8 °F 76% 30.33 in 10.0 mi ESE 6.9 mph - N/A   Clear
2:55 AM 39.2 °F 33.6 °F 32.0 °F 75% 30.33 in 10.0 mi ESE 8.1 mph - N/A   Clear
3:15 AM 39.2 °F 33.6 °F 32.0 °F 75% 30.33 in 10.0 mi ESE 8.1 mph - N/A   Clear
3:35 AM 39.2 °F 34.2 °F 32.0 °F 75% 30.33 in 10.0 mi East 6.9 mph - N/A   Clear
3:55 AM 37.4 °F 32.1 °F 30.2 °F 75% 30.33 in 10.0 mi East 6.9 mph - N/A   Clear
4:15 AM 37.4 °F 32.8 °F 32.0 °F 81% 30.33 in 10.0 mi ESE 5.8 mph - N/A   Clear
4:35 AM 37.4 °F 30.8 °F 30.2 °F 75% 30.34 in 10.0 mi ESE 9.2 mph - N/A   Clear
4:55 AM 37.4 °F 33.8 °F 30.2 °F 75% 30.35 in 10.0 mi NE 4.6 mph - N/A   Clear
5:15 AM 35.6 °F 30.7 °F 28.4 °F 75% 30.37 in 10.0 mi North 5.8 mph - N/A   Clear
5:35 AM 35.6 °F 29.2 °F 28.4 °F 75% 30.37 in 10.0 mi North 8.1 mph - N/A   Clear
5:55 AM 35.6 °F 29.9 °F 28.4 °F 75% 30.37 in 10.0 mi North 6.9 mph - N/A   Clear
6:15 AM 35.6 °F 31.7 °F 28.4 °F 75% 30.38 in 10.0 mi North 4.6 mph - N/A   Mostly Cloudy
6:35 AM 37.4 °F 32.1 °F 30.2 °F 75% 30.41 in 10.0 mi NNW 6.9 mph - N/A   Overcast
6:55 AM 37.4 °F 32.8 °F 30.2 °F 75% 30.41 in 9.0 mi NW 5.8 mph - N/A   Mostly Cloudy
7:15 AM 37.4 °F 32.8 °F 30.2 °F 75% 30.40 in 10.0 mi ENE 5.8 mph - N/A   Partly Cloudy
7:35 AM 37.4 °F 34.9 °F 30.2 °F 75% 30.39 in 10.0 mi ENE 3.5 mph - N/A   Clear
7:55 AM 39.2 °F 35.9 °F 30.2 °F 70% 30.40 in 10.0 mi ENE 4.6 mph - N/A   Clear
8:15 AM 39.2 °F 34.2 °F 32.0 °F 75% 30.39 in 10.0 mi East 6.9 mph - N/A   Clear
8:35 AM 41.0 °F 35.8 °F 32.0 °F 70% 30.39 in 10.0 mi East 8.1 mph - N/A   Clear
8:55 AM 42.8 °F 38.0 °F 33.8 °F 70% 30.38 in 10.0 mi ESE 8.1 mph - N/A   Clear
9:15 AM 42.8 °F 37.5 °F 32.0 °F 66% 30.38 in 10.0 mi SE 9.2 mph - N/A   Clear
9:35 AM 44.6 °F 39.7 °F 33.8 °F 66% 30.37 in 10.0 mi SE 9.2 mph - N/A   Clear
9:55 AM 44.6 °F 39.7 °F 33.8 °F 66% 30.37 in 10.0 mi SE 9.2 mph - N/A   Partly Cloudy
10:15 AM 46.4 °F 42.9 °F 33.8 °F 62% 30.37 in 10.0 mi SSE 6.9 mph - N/A   Scattered Clouds
10:35 AM 46.4 °F 42.9 °F 33.8 °F 62% 30.36 in 10.0 mi SE 6.9 mph - N/A   Mostly Cloudy
10:55 AM 48.2 °F - 35.6 °F 62% 30.35 in 10.0 mi SE 11.5 mph - N/A   Mostly Cloudy
11:15 AM 50.0 °F - 35.6 °F 58% 30.35 in 10.0 mi SE 10.4 mph - N/A   Partly Cloudy
11:35 AM 53.6 °F - 37.4 °F 54% 30.35 in 10.0 mi South 10.4 mph - N/A   Clear
11:55 AM 57.2 °F - 39.2 °F 51% 30.33 in 10.0 mi South 9.2 mph - N/A   Clear
12:15 PM 59.0 °F - 41.0 °F 51% 30.32 in 10.0 mi South 10.4 mph - N/A   Mostly Cloudy
12:35 PM 60.8 °F - 41.0 °F 48% 30.31 in 10.0 mi South 13.8 mph - N/A   Overcast
12:55 PM 59.0 °F - 42.8 °F 55% 30.31 in 10.0 mi South 11.5 mph - N/A   Overcast
1:15 PM 59.0 °F - 42.8 °F 55% 30.30 in 10.0 mi South 17.3 mph - N/A   Overcast
1:35 PM 59.0 °F - 42.8 °F 55% 30.28 in 10.0 mi South 15.0 mph - N/A   Mostly Cloudy
1:55 PM 57.2 °F - 42.8 °F 59% 30.27 in 10.0 mi South 16.1 mph - N/A   Mostly Cloudy
2:15 PM 57.2 °F - 42.8 °F 59% 30.28 in 10.0 mi SSW 17.3 mph 20.7 mph N/A   Partly Cloudy
2:35 PM 57.2 °F - 41.0 °F 55% 30.26 in 10.0 mi South 15.0 mph - N/A   Mostly Cloudy
2:55 PM 55.4 °F - 42.8 °F 63% 30.22 in 10.0 mi SSE 18.4 mph - N/A   Mostly Cloudy
3:15 PM 55.4 °F - 42.8 °F 63% 30.22 in 10.0 mi South 17.3 mph - N/A   Mostly Cloudy
3:35 PM 57.2 °F - 44.6 °F 63% 30.24 in 10.0 mi South 18.4 mph - N/A   Overcast
3:55 PM 57.2 °F - 44.6 °F 63% 30.23 in 10.0 mi South 15.0 mph - N/A   Mostly Cloudy
4:15 PM 55.4 °F - 44.6 °F 67% 30.24 in 10.0 mi SSW 13.8 mph - N/A   Overcast
4:35 PM 55.4 °F - 44.6 °F 67% 30.23 in 10.0 mi South 20.7 mph - N/A   Overcast
4:55 PM 53.6 °F - 46.4 °F 77% 30.21 in 8.0 mi South 16.1 mph 31.1 mph 0.01 in   Overcast
5:15 PM 53.6 °F - 46.4 °F 77% 30.24 in 9.0 mi SSW 10.4 mph - 0.01 in   Mostly Cloudy
5:35 PM 53.6 °F - 46.4 °F 77% 30.22 in 9.0 mi SSE 16.1 mph - 0.02 in   Overcast
5:55 PM 53.6 °F - 46.4 °F 77% 30.21 in 10.0 mi SSE 12.7 mph - 0.02 in   Overcast
6:15 PM 53.6 °F - 46.4 °F 77% 30.22 in 10.0 mi South 13.8 mph - N/A   Mostly Cloudy
6:35 PM 53.6 °F - 46.4 °F 77% 30.22 in 10.0 mi South 15.0 mph - N/A   Mostly Cloudy
6:55 PM 51.8 °F - 46.4 °F 82% 30.22 in 10.0 mi South 13.8 mph - N/A   Scattered Clouds
7:15 PM 51.8 °F - 44.6 °F 76% 30.23 in 10.0 mi South 12.7 mph - N/A   Clear
7:35 PM 51.8 °F - 44.6 °F 76% 30.22 in 10.0 mi South 11.5 mph - N/A   Clear
7:55 PM 50.0 °F - 44.6 °F 82% 30.23 in 10.0 mi South 10.4 mph - N/A   Clear
8:15 PM 50.0 °F - 44.6 °F 82% 30.23 in 10.0 mi South 8.1 mph - N/A   Partly Cloudy
8:35 PM 48.2 °F - 44.6 °F 87% 30.23 in 10.0 mi SSW 6.9 mph - N/A   Partly Cloudy
8:55 PM 48.2 °F - 42.8 °F 82% 30.24 in 10.0 mi SSW 9.2 mph - N/A   Clear
9:15 PM 48.2 °F - 42.8 °F 82% 30.23 in 10.0 mi South 8.1 mph - N/A   Clear
9:35 PM 50.0 °F - 44.6 °F 82% 30.24 in 10.0 mi SSW 6.9 mph - N/A   Mostly Cloudy
9:55 PM 51.8 °F - 46.4 °F 82% 30.25 in 10.0 mi SW 11.5 mph - N/A   Overcast
10:15 PM 51.8 °F - 46.4 °F 82% 30.27 in 10.0 mi WSW 13.8 mph - N/A   Overcast
10:35 PM 53.6 °F - 46.4 °F 77% 30.28 in 10.0 mi West 17.3 mph 23.0 mph N/A   Overcast
10:55 PM 51.8 °F - 46.4 °F 82% 30.27 in 9.0 mi West 12.7 mph - N/A   Overcast
11:15 PM 51.8 °F - 46.4 °F 82% 30.24 in 10.0 mi SW 4.6 mph - N/A   Mostly Cloudy
11:35 PM 50.0 °F - 46.4 °F 87% 30.25 in 10.0 mi SW 6.9 mph - N/A   Partly Cloudy
11:55 PM 48.2 °F - 44.6 °F 87% 30.24 in 8.0 mi South 5.8 mph - N/A   Clear